CW4740 Weather Reports


Display with metric or nautical units.
time (UTC)temp
F
wind
direction
speed
MPH
gust
MPH
rain 1hr
in
rain 24hr
in
rain mn
in
humidity
%
barometer
mb
20260901044131 78 103 0.0 0.0 0.00 0.83 0.00 95 1016.2
20260901043629 78 103 0.0 0.0 0.00 0.83 0.00 95 1016.3
20260901043147 78 103 0.0 0.0 0.00 0.83 0.00 95 1016.4
20260901042706 79 103 0.0 0.0 0.00 0.83 0.00 95 1016.4
20260901042143 79 103 0.0 0.0 0.00 0.83 0.00 95 1016.6
20260901041719 79 103 0.0 0.0 0.01 0.83 0.00 95 1016.6
20260901041132 79 103 0.0 0.0 0.02 0.83 0.00 95 1016.6
20260901040629 79 103 0.0 0.0 0.07 0.83 0.00 95 1016.6
20260901040205 79 103 0.0 0.0 0.11 0.83 0.83 95 1016.7
20260901035653 79 103 0.0 0.0 0.12 0.83 0.83 95 1016.8
20260901035149 78 103 0.0 0.0 0.22 0.83 0.83 95 1016.8
20260901034648 78 103 0.0 0.0 0.38 0.83 0.83 95 1016.8
20260901034206 78 103 0.0 0.0 0.50 0.83 0.83 95 1017.1
20260901033703 78 103 0.0 0.0 0.63 0.83 0.83 94 1017.0
20260901033220 78 103 0.0 0.0 0.75 0.83 0.83 94 1017.0
20260901032714 77 103 0.0 0.0 0.78 0.83 0.83 94 1017.0
20260901032150 77 103 0.0 0.0 0.78 0.83 0.83 93 1017.1
20260901031646 77 103 0.0 0.0 0.77 0.82 0.82 92 1017.3
20260901031203 77 103 0.0 0.0 0.76 0.81 0.81 92 1017.4
20260901030637 77 103 0.0 3.0 0.70 0.75 0.76 92 1017.4
20260901030212 78 103 1.0 12.0 0.67 0.72 0.72 92 1017.5
20260901025639 78 103 0.0 13.0 0.67 0.71 0.71 92 1017.6
20260901025135 78 121 8.0 13.0 0.56 0.60 0.61 91 1017.4
20260901024733 79 111 7.0 13.0 0.43 0.45 0.45 92 1017.6
20260901024629 79 111 7.0 13.0 0.43 0.45 0.45 92 1017.6
20260901024227 79 131 6.0 12.0 0.31 0.32 0.32 91 1017.7
20260901023704 80 100 8.0 12.0 0.18 0.19 0.19 90 1017.7
20260901023140 81 103 3.0 7.0 0.07 0.08 0.08 91 1017.7
20260901022638 81 112 2.0 7.0 0.04 0.05 0.05 92 1017.6
20260901022217 81 86 1.0 3.0 0.04 0.05 0.05 91 1017.4
20260901021652 81 86 0.0 0.0 0.04 0.05 0.05 90 1017.3
20260901021128 81 86 0.0 0.0 0.04 0.05 0.05 89 1017.2
20260901020704 81 86 0.0 0.0 0.04 0.05 0.05 89 1017.0
20260901020141 81 86 0.0 0.0 0.04 0.05 0.05 88 1016.9
20260901015628 81 86 0.0 8.0 0.03 0.04 0.04 87 1016.9
20260901015146 82 86 2.0 9.0 0.03 0.04 0.04 86 1016.8
20260901014723 83 105 6.0 9.0 0.01 0.02 0.02 86 1016.8
20260901014641 83 105 6.0 9.0 0.01 0.02 0.02 86 1016.8
20260901014220 84 100 5.0 9.0 0.00 0.01 0.01 86 1016.7
20260901013713 84 346 2.0 4.0 0.00 0.01 0.01 85 1016.7
20260901013134 84 337 2.0 3.0 0.00 0.01 0.01 85 1016.8
20260901012631 84 336 0.0 5.0 0.00 0.01 0.01 85 1016.6
20260901012129 84 355 2.0 5.0 0.00 0.01 0.01 84 1016.6
20260901011726 84 88 0.0 0.0 0.00 0.01 0.01 84 1016.4
20260901011141 84 88 0.0 0.0 0.00 0.01 0.01 84 1016.4
20260901010714 84 88 0.0 0.0 0.00 0.01 0.01 84 1016.4
20260901010135 84 88 0.0 0.0 0.00 0.01 0.01 84 1016.2
20260901005644 84 88 0.0 0.0 0.00 0.01 0.01 85 1016.3
20260901005217 84 88 0.0 0.0 0.00 0.01 0.01 85 1016.3
20260901004638 84 88 0.0 1.0 0.00 0.01 0.01 85 1016.2
20260901004136 84 88 0.0 3.0 0.00 0.01 0.01 85 1016.1
20260901003634 85 88 1.0 3.0 0.00 0.01 0.01 85 1016.2
20260901003152 85 88 2.0 4.0 0.00 0.01 0.01 84 1016.1
20260901002648 85 88 0.0 4.0 0.00 0.01 0.01 84 1016.2
20260901002225 85 88 2.0 4.0 0.00 0.01 0.01 84 1016.1
20260901001642 85 38 1.0 4.0 0.00 0.01 0.01 84 1016.1
20260901001200 85 42 1.0 5.0 0.00 0.01 0.01 84 1016.1
20260901000637 85 65 1.0 5.0 0.00 0.01 0.01 84 1016.1
20260901000218 85 40 2.0 5.0 0.00 0.04 0.01 84 1016.0
20260901000133 85 40 2.0 5.0 0.00 0.04 0.01 84 1016.0
20260831235718 85 41 2.0 5.0 0.00 0.04 0.01 84 1016.0
20260831235636 85 41 2.0 5.0 0.00 0.04 0.01 84 1016.0
20260831235139 84 77 2.0 5.0 0.00 0.04 0.01 84 1016.1
20260831234658 84 77 2.0 5.0 0.00 0.04 0.01 84 1015.9
20260831234132 84 77 1.0 5.0 0.00 0.04 0.01 84 1015.8
20260831233629 84 77 1.0 5.0 0.00 0.04 0.01 85 1015.7
20260831233206 84 77 1.0 4.0 0.00 0.04 0.01 85 1015.6
20260831232643 84 77 1.0 4.0 0.00 0.04 0.01 85 1015.5
20260831232141 84 77 2.0 4.0 0.00 0.04 0.01 85 1015.7
20260831231720 84 77 2.0 5.0 0.00 0.04 0.01 85 1015.7
20260831231155 84 77 3.0 5.0 0.00 0.04 0.01 84 1015.6
20260831230632 84 79 3.0 7.0 0.00 0.04 0.01 84 1015.7
20260831230129 84 114 4.0 9.0 0.00 2.02 0.01 84 1015.7
20260831225715 85 73 2.0 5.0 0.00 2.02 0.01 85 1015.7
20260831225130 85 15 2.0 6.0 0.00 2.02 0.01 85 1015.8
20260831224646 85 355 3.0 6.0 0.00 2.02 0.01 85 1015.8
20260831224143 85 17 3.0 5.0 0.00 2.02 0.01 85 1015.7
20260831223640 85 19 2.0 5.0 0.00 2.02 0.01 85 1015.7
20260831223138 85 17 3.0 5.0 0.00 2.02 0.01 85 1015.6
20260831222637 85 38 2.0 7.0 0.00 2.02 0.01 85 1015.8
20260831222216 85 38 3.0 7.0 0.00 2.02 0.01 84 1015.8
20260831221632 85 38 3.0 6.0 0.00 2.02 0.01 84 1015.8
20260831221148 85 14 2.0 6.0 0.00 2.02 0.01 84 1015.8
20260831220645 86 360 3.0 7.0 0.00 2.02 0.01 83 1015.7
20260831220204 86 345 3.0 8.0 0.00 2.02 0.01 82 1015.8
20260831215652 86 348 3.0 6.0 0.00 2.02 0.01 82 1015.6
20260831215229 86 9 2.0 6.0 0.00 2.02 0.01 82 1015.8
20260831214647 86 345 3.0 6.0 0.00 2.02 0.01 82 1015.8
20260831214145 86 109 0.0 3.0 0.00 2.02 0.01 82 1016.0
20260831213644 86 109 0.0 8.0 0.00 2.02 0.01 82 1016.0
20260831213140 86 355 3.0 8.0 0.00 2.02 0.01 81 1016.0
20260831212656 87 87 3.0 8.0 0.00 2.02 0.01 81 1016.0
20260831212233 87 110 4.0 8.0 0.00 2.02 0.01 81 1015.9
20260831211647 87 26 3.0 7.0 0.00 2.02 0.01 80 1015.9
20260831211205 87 53 3.0 9.0 0.00 2.02 0.01 80 1016.1
20260831210641 87 91 4.0 9.0 0.00 2.02 0.01 79 1016.1
20260831210139 88 85 5.0 8.0 0.00 2.02 0.01 78 1015.9
20260831205748 88 69 3.0 11.0 0.00 2.02 0.01 77 1016.1
20260831205706 88 69 3.0 11.0 0.00 2.02 0.01 77 1016.1
20260831205143 89 109 2.0 11.0 0.00 2.02 0.01 77 1016.1
20260831204642 89 95 5.0 11.0 0.00 2.02 0.01 77 1015.8
20260831204201 88 106 6.0 11.0 0.00 2.02 0.01 77 1015.9
20260831203659 88 98 4.0 10.0 0.00 2.02 0.01 77 1016.0
20260831203235 89 24 4.0 11.0 0.00 2.02 0.01 77 1015.9
20260831203132 89 24 4.0 11.0 0.00 2.02 0.01 77 1015.9
20260831202628 88 88 5.0 12.0 0.00 2.02 0.01 78 1015.7
20260831202146 88 36 6.0 12.0 0.00 2.02 0.01 79 1015.8
20260831201702 89 84 5.0 11.0 0.00 2.02 0.01 77 1015.7
20260831201139 89 104 3.0 10.0 0.00 2.02 0.01 77 1015.8
20260831200636 89 31 5.0 11.0 0.00 2.02 0.01 78 1015.8
20260831200153 89 100 5.0 12.0 0.00 2.02 0.01 77 1015.7
20260831195740 89 100 7.0 12.0 0.00 2.02 0.01 76 1015.5
20260831195636 89 100 7.0 12.0 0.00 2.02 0.01 76 1015.5
20260831195133 89 80 7.0 12.0 0.00 2.02 0.01 77 1015.5
20260831194710 89 117 6.0 10.0 0.00 2.02 0.01 76 1015.5
20260831194628 89 117 6.0 10.0 0.00 2.02 0.01 76 1015.5
20260831194242 89 76 6.0 12.0 0.00 2.02 0.01 75 1015.7
20260831194139 89 76 6.0 12.0 0.00 2.02 0.01 75 1015.7
20260831193716 89 96 7.0 10.0 0.00 2.02 0.01 74 1015.7
20260831193132 89 80 5.0 12.0 0.00 2.02 0.01 74 1015.7
20260831192629 89 107 7.0 12.0 0.00 2.02 0.01 72 1015.9
20260831192247 89 113 6.0 11.0 0.00 2.02 0.01 73 1016.2
20260831191641 89 101 6.0 11.0 0.00 2.02 0.01 73 1016.1
20260831191139 89 86 5.0 9.0 0.00 2.02 0.01 73 1016.0
20260831190636 89 81 4.0 11.0 0.00 2.02 0.01 74 1015.9
20260831190233 89 108 6.0 11.0 0.00 2.02 0.01 73 1015.8
20260831190130 89 108 6.0 11.0 0.00 2.02 0.01 73 1015.8
20260831185659 89 108 4.0 10.0 0.00 2.02 0.01 74 1015.8
20260831185216 89 80 5.0 10.0 0.00 2.02 0.01 74 1016.1
20260831184630 89 158 5.0 10.0 0.00 2.02 0.01 74 1016.2
20260831184208 89 115 5.0 11.0 0.00 2.02 0.01 73 1016.3
20260831183643 89 98 5.0 11.0 0.00 2.02 0.01 73 1016.5
20260831183220 89 125 7.0 11.0 0.00 2.02 0.01 73 1016.6
20260831182636 89 131 8.0 11.0 0.00 2.02 0.01 72 1016.5
20260831182215 89 104 6.0 10.0 0.00 2.02 0.01 72 1016.7
20260831181632 89 80 5.0 9.0 0.00 2.02 0.01 73 1016.7
20260831181130 89 115 4.0 10.0 0.00 2.02 0.01 74 1016.8
20260831180648 89 101 5.0 10.0 0.00 2.02 0.01 73 1016.8
20260831180225 89 107 5.0 9.0 0.00 2.02 0.01 73 1017.0
20260831175630 89 119 4.0 8.0 0.00 2.02 0.01 75 1016.9
20260831175207 89 123 5.0 8.0 0.00 2.02 0.01 74 1016.9
20260831174704 89 106 4.0 9.0 0.00 2.02 0.01 75 1016.9
20260831174141 88 91 4.0 9.0 0.00 2.02 0.01 76 1017.0
20260831173659 89 88 6.0 9.0 0.00 2.02 0.01 75 1017.0
20260831173136 88 97 6.0 10.0 0.00 2.02 0.01 75 1016.9
20260831172634 88 89 5.0 10.0 0.00 2.02 0.01 77 1016.9
20260831172152 88 134 4.0 9.0 0.00 2.02 0.01 76 1016.9
20260831171748 88 81 4.0 9.0 0.00 2.02 0.01 76 1016.9
20260831171203 88 105 2.0 8.0 0.00 2.02 0.01 78 1016.9
20260831170640 88 146 3.0 7.0 0.00 2.02 0.01 79 1016.8
20260831170219 87 147 3.0 7.0 0.00 2.02 0.01 78 1016.9
20260831170137 87 147 3.0 7.0 0.00 2.02 0.01 78 1016.9
20260831165724 87 103 3.0 7.0 0.00 2.02 0.01 79 1016.9
20260831165158 87 97 4.0 6.0 0.00 2.02 0.01 79 1017.0
20260831164714 87 124 1.0 6.0 0.00 2.02 0.01 80 1017.0
20260831164632 87 124 1.0 6.0 0.00 2.02 0.01 80 1017.0
20260831164244 86 124 1.0 6.0 0.00 2.02 0.01 80 1017.1
20260831164141 86 124 1.0 6.0 0.00 2.02 0.01 80 1017.1
20260831163642 86 124 3.0 6.0 0.00 2.02 0.01 81 1017.1
20260831163153 86 124 0.0 4.0 0.00 2.02 0.01 82 1017.1
20260831162710 86 124 1.0 4.0 0.00 2.02 0.01 82 1017.0
20260831162145 86 124 2.0 4.0 0.00 2.02 0.01 84 1017.2
20260831161704 86 124 1.0 4.0 0.00 2.02 0.01 86 1017.4
20260831161200 85 124 2.0 6.0 0.00 2.02 0.01 86 1017.6
20260831160636 85 124 3.0 6.0 0.00 2.02 0.01 85 1017.6
20260831160134 84 124 2.0 5.0 0.00 2.02 0.01 87 1017.6
20260831155744 84 124 2.0 3.0 0.00 2.02 0.01 87 1017.7
20260831155701 84 124 2.0 3.0 0.00 2.02 0.01 87 1017.7
20260831155158 84 124 1.0 3.0 0.00 2.02 0.01 87 1017.8
20260831154654 83 124 1.0 4.0 0.00 2.02 0.01 88 1017.9
20260831154130 83 124 2.0 4.0 0.00 2.02 0.01 89 1017.9
20260831153646 83 124 0.0 2.0 0.00 2.02 0.01 90 1017.9
20260831153202 83 124 0.0 2.0 0.01 2.02 0.01 91 1017.9
20260831152637 82 124 0.0 0.0 0.01 2.02 0.01 91 1018.0
20260831152153 82 124 0.0 0.0 0.01 2.02 0.01 90 1018.1
20260831151630 81 124 0.0 0.0 0.01 2.02 0.01 89 1018.0
20260831151207 81 124 0.0 3.0 0.01 2.02 0.01 89 1017.8
20260831150644 81 124 2.0 3.0 0.01 2.02 0.01 88 1017.7
20260831150141 81 124 0.0 4.0 0.01 2.02 0.01 88 1017.7
20260831145649 81 124 0.0 4.0 0.01 2.02 0.01 88 1017.7
20260831145145 81 124 2.0 6.0 0.01 2.02 0.01 87 1017.6
20260831144702 80 124 3.0 6.0 0.01 2.02 0.01 87 1017.7
20260831144220 80 124 1.0 7.0 0.01 2.02 0.01 86 1017.7
20260831144138 80 124 1.0 7.0 0.01 2.02 0.01 86 1017.7
20260831143635 81 120 4.0 9.0 0.01 2.02 0.01 86 1017.7
20260831143212 81 151 2.0 9.0 0.00 2.01 0.00 86 1017.6
20260831142747 82 98 3.0 9.0 0.00 2.01 0.00 86 1017.7
20260831142142 83 142 4.0 9.0 0.00 2.01 0.00 87 1017.8
20260831141701 83 115 0.0 0.0 0.00 2.01 0.00 87 1017.6
20260831141138 83 115 0.0 0.0 0.00 2.01 0.00 87 1017.5
20260831140717 84 115 0.0 0.0 0.00 2.01 0.00 87 1017.4
20260831140152 84 115 0.0 0.0 0.00 2.01 0.00 87 1017.4
20260831135718 84 115 0.0 0.0 0.00 2.01 0.00 86 1017.4
20260831135134 84 115 0.0 0.0 0.00 2.01 0.00 87 1017.3
20260831134733 84 115 0.0 0.0 0.00 2.01 0.00 86 1017.2
20260831134650 84 115 0.0 0.0 0.00 2.01 0.00 86 1017.2
20260831134227 84 115 0.0 0.0 0.00 2.01 0.00 87 1017.2
20260831133643 84 115 0.0 0.0 0.00 2.01 0.00 88 1017.2
20260831133141 84 115 0.0 0.0 0.00 2.01 0.00 89 1017.1
20260831132638 83 115 0.0 0.0 0.00 2.01 0.00 90 1017.1
20260831132156 83 115 0.0 0.0 0.00 2.01 0.00 92 1017.0
20260831131733 82 115 0.0 0.0 0.00 2.01 0.00 92 1016.9
20260831131208 82 115 0.0 0.0 0.00 2.01 0.00 93 1016.9
20260831130725 81 115 0.0 0.0 0.00 2.01 0.00 94 1016.8
20260831130217 81 115 0.0 0.0 0.00 2.01 0.00 94 1016.7
20260831130135 81 115 0.0 0.0 0.00 2.01 0.00 94 1016.7
20260831125744 81 115 0.0 0.0 0.00 2.01 0.00 95 1016.7
20260831125640 81 115 0.0 0.0 0.00 2.01 0.00 95 1016.7
20260831125135 81 115 0.0 2.0 0.00 2.01 0.00 95 1016.5
20260831124632 81 115 0.0 2.0 0.00 2.01 0.00 95 1016.6
20260831124249 81 115 1.0 2.0 0.00 2.01 0.00 95 1016.5
20260831123644 80 115 0.0 2.0 0.00 2.01 0.00 95 1016.4
20260831123141 80 115 1.0 2.0 0.00 2.01 0.00 96 1016.4
20260831122640 80 115 0.0 0.0 0.00 2.01 0.00 96 1016.5
20260831122137 80 115 0.0 3.0 0.00 2.01 0.00 95 1016.5
20260831121714 80 115 0.0 3.0 0.00 2.01 0.00 95 1016.4
20260831121131 80 115 1.0 3.0 0.00 2.01 0.00 95 1016.4
20260831120649 80 115 2.0 3.0 0.00 2.01 0.00 95 1016.4
20260831120146 79 115 0.0 0.0 0.00 2.01 0.00 95 1016.2
20260831115715 79 115 0.0 0.0 0.00 2.01 0.00 95 1016.2
20260831115132 79 115 0.0 0.0 0.00 2.01 0.00 95 1016.2
20260831114749 79 115 0.0 0.0 0.00 2.01 0.00 95 1016.1
20260831114203 79 115 0.0 0.0 0.00 2.01 0.00 95 1016.0
20260831113659 79 115 0.0 0.0 0.00 2.01 0.00 95 1016.0
20260831113135 79 115 0.0 0.0 0.00 2.01 0.00 95 1016.0
20260831112633 79 115 0.0 0.0 0.00 2.01 0.00 95 1016.0
20260831112131 79 115 0.0 0.0 0.00 2.01 0.00 95 1015.9
20260831111749 79 115 0.0 0.0 0.00 2.01 0.00 94 1015.7
20260831111707 79 115 0.0 0.0 0.00 2.01 0.00 94 1015.7
20260831111142 79 115 0.0 0.0 0.00 2.01 0.00 94 1015.6
20260831110640 79 115 0.0 0.0 0.00 2.01 0.00 94 1015.5
20260831110158 79 115 0.0 0.0 0.00 2.01 0.00 94 1015.6
20260831105646 79 115 0.0 0.0 0.00 2.01 0.00 94 1015.5
20260831105242 79 115 0.0 0.0 0.00 2.01 0.00 94 1015.5
20260831104715 79 115 0.0 0.0 0.00 2.01 0.00 94 1015.5
20260831104149 79 115 0.0 0.0 0.00 2.01 0.00 93 1015.5
20260831103706 80 115 0.0 0.0 0.00 2.01 0.00 93 1015.5
20260831103222 80 115 0.0 0.0 0.00 2.01 0.00 93 1015.5
20260831102638 80 115 0.0 0.0 0.00 2.01 0.00 93 1015.4
20260831102216 80 115 0.0 0.0 0.00 2.01 0.00 92 1015.5
20260831102133 80 115 0.0 0.0 0.00 2.01 0.00 92 1015.5
20260831101632 80 115 0.0 0.0 0.00 2.01 0.00 92 1015.5
20260831101129 80 115 0.0 0.0 0.00 2.01 0.00 92 1015.5
20260831100647 80 115 0.0 0.0 0.00 2.01 0.00 92 1015.4
20260831100144 80 115 0.0 0.0 0.00 2.01 0.00 91 1015.4
20260831095710 80 115 0.0 0.0 0.00 2.01 0.00 91 1015.3
20260831095242 80 115 0.0 0.0 0.00 2.01 0.00 90 1015.2
20260831094716 80 115 0.0 0.0 0.00 2.01 0.00 90 1015.1
20260831094231 81 115 0.0 0.0 0.00 2.01 0.00 90 1015.0
20260831094149 81 115 0.0 0.0 0.00 2.01 0.00 90 1015.0
20260831093646 81 115 0.0 0.0 0.00 2.01 0.00 90 1015.0
20260831093224 81 115 0.0 0.0 0.00 2.01 0.00 90 1014.9
20260831092638 81 115 0.0 0.0 0.00 2.01 0.00 89 1014.9
20260831092157 81 115 0.0 0.0 0.00 2.01 0.00 89 1014.9
20260831091634 81 115 0.0 0.0 0.00 2.01 0.00 89 1015.0
20260831091132 81 115 0.0 0.0 0.00 2.01 0.00 89 1015.1
20260831090729 81 115 0.0 0.0 0.00 2.01 0.00 89 1015.1
20260831090203 81 115 0.0 0.0 0.00 2.01 0.00 89 1015.1
20260831085710 81 115 0.0 0.0 0.00 2.01 0.00 88 1015.1
20260831085146 81 115 0.0 0.0 0.00 2.01 0.00 89 1015.1
20260831084703 81 115 0.0 0.0 0.00 2.01 0.00 89 1015.0
20260831084138 81 115 0.0 0.0 0.00 2.01 0.00 89 1015.1
20260831083636 81 115 0.0 0.0 0.00 2.01 0.00 89 1015.2
20260831083134 81 115 0.0 0.0 0.00 2.01 0.00 88 1015.3
20260831082711 81 115 0.0 0.0 0.00 2.01 0.00 88 1015.1
20260831082248 82 115 0.0 0.0 0.00 2.01 0.00 88 1015.3
20260831082205 82 115 0.0 0.0 0.00 2.01 0.00 88 1015.3
20260831081702 82 115 0.0 0.0 0.00 2.01 0.00 88 1015.3
20260831081200 82 115 0.0 0.0 0.00 2.01 0.00 88 1015.4
20260831080657 82 115 0.0 0.0 0.00 2.01 0.00 88 1015.4
20260831080215 82 115 0.0 0.0 0.00 2.01 0.00 88 1015.4
20260831075659 82 115 0.0 0.0 0.00 2.01 0.00 87 1015.3
20260831075134 82 115 0.0 0.0 0.00 2.01 0.00 87 1015.4
20260831074630 82 115 0.0 0.0 0.00 2.01 0.00 87 1015.3
20260831074147 82 115 0.0 0.0 0.00 2.01 0.00 87 1015.2
20260831073704 82 115 0.0 4.0 0.00 2.01 0.00 87 1015.2
20260831073220 82 115 1.0 4.0 0.00 2.01 0.00 87 1015.2
20260831072737 82 115 2.0 6.0 0.00 2.01 0.00 87 1015.3
20260831072151 82 115 3.0 6.0 0.00 2.01 0.00 88 1015.4
20260831071744 82 115 0.0 0.0 0.00 2.01 0.00 88 1015.5
20260831071641 82 115 0.0 0.0 0.00 2.01 0.00 88 1015.5
20260831071138 82 115 0.0 0.0 0.00 2.01 0.00 88 1015.5
20260831070655 82 115 0.0 4.0 0.00 2.01 0.00 88 1015.6
20260831070133 82 115 0.0 4.0 0.00 2.01 0.00 88 1015.6
20260831065642 82 115 1.0 7.0 0.00 2.01 0.00 88 1015.6
20260831065140 82 115 2.0 7.0 0.00 2.01 0.00 88 1015.6
20260831064641 82 115 1.0 4.0 0.00 2.01 0.00 88 1015.8
20260831064139 82 115 2.0 4.0 0.00 2.01 0.00 88 1015.8
20260831063634 82 115 1.0 4.0 0.00 2.01 0.00 88 1015.8
20260831063151 82 115 1.0 6.0 0.00 2.01 0.00 88 1015.8
20260831062707 82 115 2.0 6.0 0.00 2.01 0.00 88 1015.6
20260831062224 82 115 2.0 4.0 0.00 2.01 0.00 88 1015.6
20260831061640 82 115 0.0 4.0 0.00 2.01 0.00 88 1015.5
20260831061136 82 115 2.0 4.0 0.00 2.01 0.00 88 1015.8
20260831060655 82 115 2.0 6.0 0.00 2.01 0.00 88 1015.8
20260831060131 82 115 3.0 8.0 0.00 2.01 0.00 87 1016.0
20260831055642 82 115 4.0 8.0 0.00 2.01 0.00 87 1016.2
20260831055139 82 121 3.0 7.0 0.00 2.01 0.00 87 1016.3
20260831054638 82 121 2.0 9.0 0.00 2.01 0.00 88 1016.4
20260831054157 82 94 3.0 9.0 0.00 2.01 0.00 88 1016.5
20260831053713 81 94 4.0 9.0 0.00 2.01 0.00 89 1016.5
20260831053149 81 94 5.0 8.0 0.00 2.01 0.00 90 1016.6
20260831052645 81 94 3.0 6.0 0.00 2.01 0.00 90 1016.7
20260831052140 81 94 2.0 6.0 0.00 2.01 0.00 91 1016.7
20260831051637 81 94 2.0 6.0 0.00 2.01 0.00 91 1016.8
20260831051214 81 94 2.0 3.0 0.00 2.01 0.00 91 1016.9
20260831050630 81 94 1.0 3.0 0.00 2.01 0.00 91 1016.8
20260831050147 81 94 1.0 3.0 0.00 2.01 0.00 91 1016.8
20260831045655 81 94 0.0 0.0 0.00 2.01 0.00 91 1017.0
20260831045150 81 94 0.0 0.0 0.00 2.01 0.00 91 1017.1
20260831044727 81 94 0.0 0.0 0.00 2.01 0.00 91 1017.2
20260831044202 81 94 0.0 0.0 0.00 2.01 0.00 92 1017.2